カタログに戻る

COSMOS 2251 DEB

運用中LEO
NORAD 34754·DEBRIS·🇷🇺 Russia

打ち上げ Jun 16, 1993 から Plesetsk Cosmodrome

Loading…

次のパス (今後24時間)

TLE

最新Source: Space-Track

元期: Sep 14, 2026, 06:23 UTC

1 34754U 93036ZY  26257.26620271  .00000334  00000-0  11208-3 0  9997
2 34754  74.0285  77.7829 0028840 129.9016 285.4624 14.40792869921015

AllMySatでCOSMOS 2251 DEBをリアルタイム追跡

Download on the App Store